{"data":{"norad_id":65770,"epoch":"2026-09-20T06:17:52.707840Z","epoch_age_seconds":167241,"freshness":"FRESH","line1":"1 65770U 25217J   26263.26241560  .00001609  00000+0  24005-3 0  9996","line2":"2 65770  51.9005 270.2243 0000590  84.7621 275.3408 14.79938241 53587","mean_motion":14.79938241,"eccentricity":5.9e-5,"inclination_deg":51.9005,"raan_deg":270.2243,"arg_perigee_deg":84.7621,"mean_anomaly_deg":275.3408,"bstar":0.00024005,"rev_number":5358,"period_min":97.301357590908,"perigee_km":629.10563297655,"apogee_km":629.93253639454,"semimajor_km":7007.6560846855,"source":"CELESTRAK","updated_at":"2026-09-21T09:00:15.558462Z"}}